Location: ??????
(31.2056°N, 45.3906°E)
Time: 16:46:50
(UTC+00:00)

MetOp-A - Pass Details

Date: 09 April 2020
Orbit: 819 x 821 km, 98.5° (Epoch: 27 May)

Event Time Altitude Azimuth Distance (km) Brightness Sun altitude
Exits shadow 17:32:10 58° 198° (SSW) 955 4.3 -26.8°
Maximum altitude 17:33:09 73° 258° (WSW) 859 4.2 -27.0°
Drops below altitude 10° 17:38:30 10° 343° (NNW) 2,420 7.1 -28.0°
Sets 17:40:52 0° 345° (NNW) 3,356 7.9 -28.4°
